Time,TemperatureF,DewpointF,PressureIn,WindDirection,WindDirectionDegrees,WindSpeedMPH,WindSpeedGustMPH,Humidity,HourlyPrecipIn,Conditions,Clouds,dailyrainin,SoftwareType,DateUTC
2013-08-05 00:02:00,80.0,77.0,30.02,North,359,0.0,0.0,92,0.06,,,0.88,,2013-08-05 04:02:00,
2013-08-05 00:12:00,80.0,78.0,30.02,North,359,0.0,0.0,93,0.06,,,0.88,,2013-08-05 04:12:00,
2013-08-05 00:22:00,80.0,78.0,30.02,North,359,0.0,0.0,93,0.00,,,0.07,,2013-08-05 04:22:00,
2013-08-05 00:32:00,80.0,78.0,30.02,North,359,0.0,0.0,93,0.00,,,0.07,,2013-08-05 04:32:00,
2013-08-05 00:43:00,80.0,78.0,30.02,North,359,0.0,0.0,94,0.00,,,0.07,,2013-08-05 04:43:00,
2013-08-05 00:52:00,80.0,78.0,30.02,North,359,0.0,0.0,95,0.00,,,0.07,,2013-08-05 04:52:00,
2013-08-05 01:02:00,80.0,78.0,30.02,North,359,0.0,0.0,95,0.00,,,0.07,,2013-08-05 05:02:00,
2013-08-05 01:12:00,80.0,79.0,30.02,North,359,0.0,0.0,96,0.00,,,0.07,,2013-08-05 05:12:00,
2013-08-05 01:22:00,79.0,78.0,30.02,North,359,0.0,0.0,96,0.00,,,0.07,,2013-08-05 05:22:00,
2013-08-05 01:32:00,79.0,78.0,30.02,North,359,0.0,0.0,96,0.00,,,0.07,,2013-08-05 05:32:00,
2013-08-05 01:43:00,79.0,78.0,30.01,North,359,0.0,0.0,96,0.00,,,0.07,,2013-08-05 05:43:00,
2013-08-05 01:53:00,79.0,78.0,30.01,North,359,0.0,0.0,96,0.00,,,0.07,,2013-08-05 05:53:00,
2013-08-05 02:02:00,79.0,78.0,30.01,North,359,0.0,0.0,96,0.00,,,0.07,,2013-08-05 06:02:00,
2013-08-05 02:12:00,79.0,78.0,30.00,North,359,0.0,0.0,97,0.00,,,0.07,,2013-08-05 06:12:00,
2013-08-05 02:22:00,79.0,78.0,30.00,North,359,0.0,0.0,97,0.00,,,0.07,,2013-08-05 06:22:00,
2013-08-05 02:32:00,79.0,78.0,30.00,North,359,0.0,0.0,97,0.00,,,0.07,,2013-08-05 06:32:00,
2013-08-05 02:43:00,79.0,78.0,30.00,North,359,0.0,0.0,97,0.00,,,0.07,,2013-08-05 06:43:00,
2013-08-05 02:52:00,79.0,78.0,30.00,North,359,0.0,0.0,98,0.00,,,0.07,,2013-08-05 06:52:00,
2013-08-05 03:02:00,79.0,78.0,29.99,North,359,0.0,0.0,98,0.00,,,0.07,,2013-08-05 07:02:00,
2013-08-05 03:12:00,79.0,78.0,29.98,North,359,0.0,0.0,98,0.00,,,0.07,,2013-08-05 07:12:00,
2013-08-05 03:22:00,79.0,78.0,29.98,North,359,0.0,0.0,98,0.00,,,0.07,,2013-08-05 07:22:00,
2013-08-05 03:32:00,79.0,78.0,29.98,North,359,0.0,0.0,98,0.00,,,0.07,,2013-08-05 07:32:00,
2013-08-05 03:43:00,78.0,77.0,29.98,North,359,0.0,0.0,98,0.00,,,0.07,,2013-08-05 07:43:00,
2013-08-05 03:53:00,78.0,77.0,29.98,North,359,0.0,0.0,98,0.00,,,0.07,,2013-08-05 07:53:00,
2013-08-05 04:02:00,78.0,77.0,29.97,North,359,0.0,0.0,98,0.00,,,0.07,,2013-08-05 08:02:00,
2013-08-05 04:12:00,78.0,78.0,29.97,North,359,0.0,0.0,99,0.00,,,0.07,,2013-08-05 08:12:00,
2013-08-05 04:22:00,78.0,78.0,29.97,North,359,0.0,0.0,99,0.00,,,0.07,,2013-08-05 08:22:00,
2013-08-05 04:34:00,78.0,78.0,29.97,North,359,0.0,0.0,99,0.00,,,0.07,,2013-08-05 08:34:00,
2013-08-05 04:48:00,78.0,78.0,29.97,North,359,0.0,0.0,99,0.00,,,0.07,,2013-08-05 08:48:00,
2013-08-05 05:06:00,78.0,78.0,29.97,North,359,0.0,0.0,99,0.00,,,0.07,,2013-08-05 09:06:00,
2013-08-05 05:27:00,78.0,78.0,29.97,North,359,0.0,0.0,99,0.00,,,0.07,,2013-08-05 09:27:00,
2013-08-05 05:39:00,78.0,78.0,29.97,North,359,0.0,0.0,99,0.00,,,0.07,,2013-08-05 09:39:00,
2013-08-05 05:48:00,78.0,78.0,29.97,North,359,0.0,0.0,100,0.00,,,0.07,,2013-08-05 09:48:00,
2013-08-05 05:53:00,78.0,78.0,29.97,North,359,0.0,0.0,100,0.00,,,0.07,,2013-08-05 09:53:00,
2013-08-05 06:09:00,78.0,78.0,29.98,North,359,0.0,0.0,100,0.00,,,0.07,,2013-08-05 10:09:00,
2013-08-05 06:16:00,78.0,78.0,29.98,North,359,0.0,0.0,100,0.00,,,0.07,,2013-08-05 10:16:00,
2013-08-05 06:27:00,78.0,78.0,29.98,North,359,0.0,0.0,100,0.00,,,0.07,,2013-08-05 10:27:00,
2013-08-05 06:33:00,78.0,78.0,29.98,North,359,0.0,0.0,100,0.00,,,0.07,,2013-08-05 10:33:00,
2013-08-05 06:47:00,78.0,78.0,29.99,North,359,0.0,0.0,100,0.00,,,0.07,,2013-08-05 10:47:00,
2013-08-05 06:53:00,78.0,78.0,29.99,North,359,0.0,0.0,100,0.00,,,0.07,,2013-08-05 10:53:00,
2013-08-05 07:09:00,77.0,77.0,29.99,North,359,0.0,0.0,100,0.00,,,0.07,,2013-08-05 11:09:00,
2013-08-05 07:28:00,78.0,78.0,30.00,North,359,0.0,0.0,100,0.00,,,0.07,,2013-08-05 11:28:00,
2013-08-05 07:49:00,78.0,78.0,30.00,North,359,0.0,0.0,100,0.00,,,0.07,,2013-08-05 11:49:00,
2013-08-05 07:57:00,78.0,78.0,30.00,North,359,0.0,0.0,100,0.00,,,0.07,,2013-08-05 11:57:00,
2013-08-05 08:07:00,78.0,78.0,30.00,North,359,0.0,0.0,100,0.00,,,0.07,,2013-08-05 12:07:00,
2013-08-05 08:17:00,79.0,79.0,30.00,North,359,0.0,0.0,100,0.00,,,0.07,,2013-08-05 12:17:00,
2013-08-05 08:27:00,79.0,79.0,30.01,North,359,0.0,0.0,100,0.00,,,0.07,,2013-08-05 12:27:00,
2013-08-05 08:33:00,80.0,80.0,30.01,North,359,0.0,0.0,100,0.00,,,0.07,,2013-08-05 12:33:00,
2013-08-05 08:48:00,81.0,81.0,30.02,North,359,0.0,0.0,99,0.00,,,0.07,,2013-08-05 12:48:00,
2013-08-05 08:55:00,81.0,80.0,30.01,North,359,0.0,0.0,96,0.00,,,0.07,,2013-08-05 12:55:00,
2013-08-05 09:02:00,82.0,80.0,30.01,North,359,0.0,0.0,95,0.00,,,0.07,,2013-08-05 13:02:00,
2013-08-05 09:14:00,82.0,80.0,30.01,North,359,0.0,0.0,94,0.00,,,0.07,,2013-08-05 13:14:00,
2013-08-05 09:43:00,84.0,81.0,30.01,North,359,0.0,0.0,90,0.00,,,0.07,,2013-08-05 13:43:00,
2013-08-05 09:54:00,84.0,80.0,30.01,North,359,0.0,0.0,88,0.00,,,0.07,,2013-08-05 13:54:00,
2013-08-05 10:06:00,84.0,80.0,30.01,North,359,0.0,0.0,87,0.00,,,0.07,,2013-08-05 14:06:00,
2013-08-05 10:17:00,84.0,79.0,30.01,North,359,0.0,0.0,85,0.00,,,0.07,,2013-08-05 14:17:00,
2013-08-05 10:27:00,85.0,80.0,30.01,North,359,0.0,0.0,85,0.00,,,0.07,,2013-08-05 14:27:00,
2013-08-05 10:38:00,85.0,80.0,30.01,North,359,0.0,0.0,84,0.00,,,0.07,,2013-08-05 14:38:00,
2013-08-05 10:54:00,86.0,79.0,30.01,North,359,0.0,0.0,80,0.00,,,0.07,,2013-08-05 14:54:00,
2013-08-05 11:08:00,86.0,78.0,30.01,North,359,0.0,0.0,77,0.00,,,0.07,,2013-08-05 15:08:00,
2013-08-05 11:15:00,87.0,79.0,30.01,North,359,0.0,0.0,77,0.00,,,0.07,,2013-08-05 15:15:00,
2013-08-05 11:56:00,88.0,77.0,30.01,North,359,0.0,0.0,70,0.00,,,0.07,,2013-08-05 15:56:00,
2013-08-05 12:09:00,88.0,77.0,30.01,North,359,0.0,0.0,70,0.00,,,0.07,,2013-08-05 16:09:00,
2013-08-05 12:17:00,88.0,77.0,30.01,North,359,0.0,0.0,70,0.00,,,0.07,,2013-08-05 16:17:00,
2013-08-05 12:45:00,89.0,76.0,30.01,North,359,0.0,0.0,65,0.00,,,0.07,,2013-08-05 16:45:00,
2013-08-05 13:06:00,89.0,77.0,30.00,North,359,0.0,0.0,69,0.00,,,0.07,,2013-08-05 17:06:00,
2013-08-05 13:37:00,90.0,76.0,29.98,North,359,0.0,0.0,64,0.00,,,0.07,,2013-08-05 17:37:00,
2013-08-05 13:48:00,91.0,76.0,29.98,North,359,0.0,0.0,62,0.00,,,0.07,,2013-08-05 17:48:00,
2013-08-05 13:57:00,91.0,76.0,29.98,North,359,0.0,0.0,61,0.00,,,0.07,,2013-08-05 17:57:00,
2013-08-05 14:08:00,91.0,75.0,29.96,North,359,0.0,0.0,60,0.00,,,0.07,,2013-08-05 18:08:00,
2013-08-05 14:37:00,92.0,73.0,29.95,North,359,0.0,0.0,55,0.00,,,0.07,,2013-08-05 18:37:00,
2013-08-05 14:53:00,88.0,74.0,29.97,North,359,0.0,0.0,64,0.00,,,0.07,,2013-08-05 18:53:00,
2013-08-05 15:05:00,81.0,73.0,29.98,North,359,0.0,0.0,77,0.00,,,0.07,,2013-08-05 19:05:00,
2013-08-05 15:38:00,77.0,76.0,29.95,North,359,0.0,0.0,96,0.83,,,0.07,,2013-08-05 19:38:00,
2013-08-05 15:50:00,76.0,74.0,29.95,North,359,0.0,0.0,95,0.83,,,0.07,,2013-08-05 19:50:00,
2013-08-05 16:15:00,78.0,74.0,29.96,North,359,0.0,0.0,89,0.83,,,0.07,,2013-08-05 20:15:00,
2013-08-05 16:47:00,80.0,76.0,29.93,North,359,0.0,0.0,89,0.00,,,0.07,,2013-08-05 20:47:00,
2013-08-05 17:18:00,81.0,74.0,29.93,North,359,0.0,0.0,80,0.00,,,0.07,,2013-08-05 21:18:00,
2013-08-05 17:26:00,82.0,75.0,29.92,North,359,0.0,0.0,80,0.00,,,0.07,,2013-08-05 21:26:00,
2013-08-05 17:46:00,82.0,75.0,29.92,North,359,0.0,0.0,79,0.00,,,0.07,,2013-08-05 21:46:00,
2013-08-05 17:53:00,81.0,73.0,29.93,North,359,0.0,0.0,78,0.00,,,0.07,,2013-08-05 21:53:00,
2013-08-05 18:05:00,82.0,74.0,29.93,North,359,0.0,0.0,78,0.00,,,0.07,,2013-08-05 22:05:00,
2013-08-05 18:14:00,82.0,75.0,29.94,North,359,0.0,0.0,79,0.00,,,0.07,,2013-08-05 22:14:00,
2013-08-05 18:44:00,82.0,76.0,29.95,North,359,0.0,0.0,82,0.00,,,0.07,,2013-08-05 22:44:00,
2013-08-05 18:53:00,81.0,75.0,29.95,North,359,0.0,0.0,83,0.00,,,0.07,,2013-08-05 22:53:00,
2013-08-05 19:07:00,81.0,76.0,29.95,North,359,0.0,0.0,84,0.00,,,0.07,,2013-08-05 23:07:00,
2013-08-05 19:16:00,81.0,76.0,29.95,North,359,0.0,0.0,85,0.00,,,0.07,,2013-08-05 23:16:00,
2013-08-05 19:33:00,80.0,75.0,29.96,North,359,0.0,0.0,86,0.00,,,0.07,,2013-08-05 23:33:00,
2013-08-05 19:46:00,80.0,76.0,29.96,North,359,0.0,0.0,87,0.00,,,0.07,,2013-08-05 23:46:00,
2013-08-05 19:56:00,80.0,76.0,29.97,North,359,0.0,0.0,89,0.00,,,0.07,,2013-08-05 23:56:00,
2013-08-05 20:02:00,78.0,75.0,29.98,North,359,0.0,0.0,90,0.00,,,0.07,,2013-08-06 00:02:00,
2013-08-05 20:15:00,78.0,76.0,29.98,North,359,0.0,0.0,94,0.19,,,0.07,,2013-08-06 00:15:00,
2013-08-05 20:24:00,77.0,76.0,29.98,North,359,0.0,0.0,96,0.19,,,0.07,,2013-08-06 00:24:00,
2013-08-05 20:37:00,77.0,76.0,29.97,North,359,0.0,0.0,97,0.19,,,0.07,,2013-08-06 00:37:00,
2013-08-05 20:45:00,77.0,76.0,29.98,North,359,0.0,0.0,98,0.19,,,0.07,,2013-08-06 00:45:00,
2013-08-05 20:57:00,77.0,77.0,29.98,North,359,0.0,0.0,99,0.19,,,0.07,,2013-08-06 00:57:00,
2013-08-05 21:09:00,77.0,77.0,29.98,North,359,0.0,0.0,99,0.19,,,0.07,,2013-08-06 01:09:00,
2013-08-05 21:14:00,76.0,76.0,29.97,North,359,0.0,0.0,99,0.02,,,0.07,,2013-08-06 01:14:00,
2013-08-05 21:27:00,76.0,76.0,29.98,North,359,0.0,0.0,100,0.02,,,0.07,,2013-08-06 01:27:00,
2013-08-05 21:39:00,76.0,76.0,29.99,North,359,0.0,0.0,100,0.02,,,0.07,,2013-08-06 01:39:00,
2013-08-05 22:15:00,76.0,76.0,29.98,North,359,0.0,0.0,100,0.02,,,0.07,,2013-08-06 02:15:00,
2013-08-05 22:52:00,76.0,76.0,30.00,North,359,0.0,0.0,100,0.00,,,0.07,,2013-08-06 02:52:00,
2013-08-05 23:01:00,76.0,76.0,30.01,North,359,0.0,0.0,100,0.00,,,0.07,,2013-08-06 03:01:00,
2013-08-05 23:52:00,76.0,76.0,29.99,North,359,0.0,0.0,100,0.00,,,0.07,,2013-08-06 03:52:00,